Date String (YYYY-MM-DD hh:mm:ss) UTC,Instrument flags,Ambient pressure (hPa),Sample flow (lpm),Bypass flow (lpm),Sample temperature (°C),Ambient temperature (°C),ASC tube jacket temperature (°C),LED temperature (°C),Box temperature (°C),Sample RH (%),Span deviation,Mass concentration (μg/m³),Mass concentration (μg/m³),Mass concentration (μg/m³)
DateTimeUTC,F1_M11,P_M11,Q1_M11,Q2_M11,T1_M11,T2_M11,T3_M11,T4_M11,T5_M11,U1_M11,ZSPAN_M11,X0_M11,X2_M11,X1_M11
2023-01-14 07:00:00,,0823.7,5.00,0.00,24.2,22.8,00.0,33.1,26.0,13.0,0004.8,0016.26,0011.02,0010.06
2023-01-14 07:01:00,,0823.7,5.00,0.00,24.2,22.8,00.0,33.1,26.0,12.9,0005.0,0016.52,0010.92,0009.96
2023-01-14 07:02:00,,0823.7,5.00,0.00,24.2,22.9,00.0,33.1,26.0,13.0,0004.8,0016.21,0010.95,0009.98
2023-01-14 07:03:00,,0823.7,5.01,0.00,24.2,22.9,00.0,33.1,26.1,13.0,0005.0,0016.36,0011.09,0010.13
2023-01-14 07:04:00,,0823.7,5.02,0.00,24.2,22.9,00.0,33.1,26.1,12.9,0005.6,0016.81,0011.19,0010.22
2023-01-14 07:05:00,,0823.7,5.00,0.00,24.2,22.9,00.0,33.1,26.1,12.9,0005.6,0016.99,0011.21,0010.24
2023-01-14 07:06:00,,0823.7,4.99,0.00,24.2,22.9,00.0,33.1,26.0,12.8,0006.0,0017.42,0011.11,0010.18
2023-01-14 07:07:00,,0823.7,5.00,0.00,24.3,22.9,00.0,33.1,26.1,12.6,0006.1,0018.44,0011.00,0010.09
2023-01-14 07:08:00,,0823.7,5.01,0.00,24.3,23.0,00.0,33.1,26.1,12.6,0006.2,0018.64,0010.93,0010.04
2023-01-14 07:09:00,,0823.6,5.00,0.00,24.3,23.0,00.0,33.1,26.1,12.5,0006.5,0018.31,0010.88,0009.99
2023-01-14 07:10:00,,0823.6,5.02,0.00,24.3,23.0,00.0,33.1,26.1,12.4,0006.4,0018.97,0010.81,0009.96
2023-01-14 07:11:00,,0823.5,5.01,0.00,24.3,23.0,00.0,33.1,26.1,12.4,0006.4,0018.85,0010.74,0009.92
2023-01-14 07:12:00,,0823.5,4.99,0.00,24.3,23.0,00.0,33.1,26.1,12.5,0006.3,0018.53,0010.74,0009.91
2023-01-14 07:13:00,,0823.4,4.99,0.00,24.3,23.0,00.0,33.1,26.1,12.6,0006.4,0018.99,0010.62,0009.84
2023-01-14 07:14:00,,0823.3,5.00,0.00,24.3,23.0,00.0,33.1,26.2,12.4,0006.2,0018.82,0010.45,0009.68
2023-01-14 07:15:00,,0823.4,5.01,0.00,24.3,23.0,00.0,33.2,26.2,12.4,0006.2,0018.39,0010.27,0009.52
2023-01-14 07:16:00,,0823.3,4.99,0.00,24.3,23.0,00.0,33.2,26.2,12.4,0006.2,0018.08,0010.13,0009.41
2023-01-14 07:17:00,,0823.4,5.01,0.00,24.4,23.0,00.0,33.2,26.2,12.5,0006.1,0017.42,0010.09,0009.40
2023-01-14 07:18:00,,0823.4,4.99,0.00,24.3,23.0,00.0,33.2,26.2,12.8,0006.0,0016.65,0010.31,0009.60
2023-01-14 07:19:00,,0823.4,5.00,0.00,24.3,23.0,00.0,33.2,26.2,12.9,0005.6,0017.44,0010.62,0009.87
2023-01-14 07:20:00,,0823.4,5.00,0.00,24.4,23.0,00.0,33.2,26.2,12.8,0005.8,0018.31,0010.85,0010.09
2023-01-14 07:21:00,,0823.2,5.01,0.00,24.3,23.0,00.0,33.2,26.2,12.9,0005.7,0018.18,0011.12,0010.35
2023-01-14 07:22:00,,0823.2,5.00,0.00,24.3,23.0,00.0,33.2,26.2,12.9,0005.7,0018.85,0011.43,0010.64
2023-01-14 07:23:00,,0823.1,5.01,0.00,24.4,23.0,00.0,33.2,26.2,12.8,0005.7,0019.16,0011.69,0010.88
2023-01-14 07:24:00,,0823.1,5.01,0.00,24.4,23.0,00.0,33.2,26.2,12.8,0005.6,0018.40,0011.80,0010.98
2023-01-14 07:25:00,,0823.2,5.00,0.00,24.4,23.0,00.0,33.2,26.2,12.8,0005.8,0018.74,0011.93,0011.10
2023-01-14 07:26:00,,0823.2,5.00,0.00,24.4,23.0,00.0,33.2,26.2,12.8,0005.8,0019.34,0012.05,0011.22
2023-01-14 07:27:00,,0823.1,5.00,0.00,24.4,23.0,00.0,33.2,26.2,12.8,0005.6,0019.44,0012.13,0011.28
2023-01-14 07:28:00,,0823.0,5.00,0.00,24.4,23.0,00.0,33.2,26.2,12.8,0005.7,0019.69,0012.25,0011.36
2023-01-14 07:29:00,,0822.9,5.02,0.00,24.3,23.0,00.0,33.2,26.2,12.8,0006.0,0019.73,0012.17,0011.28
2023-01-14 07:30:00,,0822.8,5.01,0.00,24.4,23.0,00.0,33.2,26.2,12.7,0006.0,0018.41,0011.98,0011.11
2023-01-14 07:31:00,,0823.0,5.01,0.00,24.3,23.0,00.0,33.2,26.2,12.7,0006.2,0018.03,0011.92,0010.98
2023-01-14 07:32:00,,0823.1,4.99,0.00,24.3,22.9,00.0,33.2,26.1,12.8,0006.2,0017.89,0011.77,0010.86
2023-01-14 07:33:00,,0823.0,5.00,0.00,24.3,22.9,00.0,33.2,26.1,12.8,0006.4,0017.37,0011.56,0010.69
2023-01-14 07:34:00,,0822.8,5.00,0.00,24.3,22.9,00.0,33.2,26.1,12.7,0006.5,0017.18,0011.35,0010.53
2023-01-14 07:35:00,,0822.8,4.99,0.00,24.3,22.9,00.0,33.2,26.1,12.7,0006.1,0017.68,0011.26,0010.43
2023-01-14 07:36:00,,0822.9,5.00,0.00,24.3,22.8,00.0,33.2,26.1,12.7,0005.7,0018.60,0011.22,0010.37
2023-01-14 07:37:00,,0822.9,5.00,0.00,24.3,22.8,00.0,33.2,26.1,12.8,0005.6,0017.95,0011.19,0010.33
2023-01-14 07:38:00,,0822.8,5.00,0.00,24.3,22.8,00.0,33.2,26.1,12.8,0005.7,0017.93,0011.17,0010.31
2023-01-14 07:39:00,,0822.8,5.00,0.00,24.3,22.8,00.0,33.2,26.1,13.0,0005.7,0018.28,0011.10,0010.26
2023-01-14 07:40:00,,0822.9,4.99,0.00,24.3,22.8,00.0,33.2,26.1,12.9,0005.4,0018.69,0011.08,0010.23
2023-01-14 07:41:00,,0822.9,5.00,0.00,24.3,22.8,00.0,33.1,26.1,12.9,0005.3,0019.00,0011.13,0010.28
2023-01-14 07:42:00,,0822.9,5.00,0.00,24.3,22.9,00.0,33.1,26.1,13.0,0003.5,0018.60,0011.10,0010.32
2023-01-14 07:43:00,,0822.8,5.00,0.00,24.3,22.9,00.0,33.1,26.1,12.9,0002.8,0018.26,0011.10,0010.33
2023-01-14 07:44:00,,0822.8,5.00,0.00,24.3,22.9,00.0,33.1,26.1,12.8,0002.2,0018.39,0011.13,0010.34
2023-01-14 07:45:00,,0822.9,5.00,0.00,24.3,22.9,00.0,33.1,26.1,12.9,0002.2,0018.71,0011.18,0010.37
2023-01-14 07:46:00,,0822.9,5.01,0.00,24.2,22.9,00.0,33.1,26.0,13.3,0003.7,0018.16,0011.21,0010.42
2023-01-14 07:47:00,,0822.8,5.00,0.00,24.2,22.8,00.0,33.1,26.0,13.6,0004.1,0017.06,0011.16,0010.41
2023-01-14 07:48:00,,0822.7,5.00,0.00,24.2,22.8,00.0,33.1,26.0,13.3,0004.1,0017.01,0011.15,0010.42
2023-01-14 07:49:00,,0822.6,5.00,0.00,24.2,22.8,00.0,33.1,26.0,13.1,0004.2,0016.96,0011.14,0010.43
2023-01-14 07:50:00,,0822.8,4.98,0.00,24.2,22.8,00.0,33.1,26.1,13.0,0004.4,0016.46,0011.12,0010.43
2023-01-14 07:51:00,,0822.8,5.00,0.00,24.2,22.8,00.0,33.1,26.0,13.1,0004.5,0015.83,0011.07,0010.40
2023-01-14 07:52:00,,0822.8,5.00,0.00,24.2,22.8,00.0,33.1,26.0,13.2,0004.7,0015.88,0011.01,0010.35
2023-01-14 07:53:00,,0822.8,5.00,0.00,24.2,22.8,00.0,33.1,25.9,13.3,0005.0,0015.79,0010.95,0010.28
2023-01-14 07:54:00,,0822.8,5.00,0.00,24.2,22.8,00.0,33.1,26.0,13.1,0004.8,0016.19,0010.89,0010.21
2023-01-14 07:55:00,,0822.7,5.00,0.00,24.2,22.8,00.0,33.1,26.0,13.0,0005.3,0015.90,0010.86,0010.17
2023-01-14 07:56:00,,0822.7,5.00,0.00,24.2,22.8,00.0,33.1,26.0,13.0,0005.4,0015.69,0010.82,0010.13
2023-01-14 07:57:00,,0822.6,5.01,0.00,24.2,22.8,00.0,33.1,26.0,13.0,0005.2,0016.37,0010.79,0010.11
2023-01-14 07:58:00,,0822.6,5.01,0.00,24.2,22.8,00.0,33.1,26.0,13.0,0005.0,0017.17,0010.83,0010.13
2023-01-14 07:59:00,,0822.7,5.00,0.00,24.2,22.8,00.0,33.1,26.0,13.0,0005.0,0017.21,0010.86,0010.14
